Port Aransas, TX

3:26 AM CST on February 11, 2016 (GMT -0600)
Port Aransas

Weather History for KRAS - November, 2012

Change the Weather History Date:

Saturday, November 10, 2012

  Actual Average (KCRP) Record (KCRP)
Temperature  
Mean Temperature 76 °F 68 °F  
Max Temperature 80 °F 78 °F 93 °F (1947)
Min Temperature 73 °F 58 °F 36 °F (1977)
Degree Days  
Heating Degree Days 0 2  
Month to date heating degree days 15  
Since 1 July heating degree days 25  
Cooling Degree Days 12 5  
Month to date cooling degree days 57  
Year to date cooling degree days 3408  
Growing Degree Days 26 (Base 50)    
Moisture  
Dew Point 66 °F    
Average Humidity 69    
Maximum Humidity 78    
Minimum Humidity 61    
Precipitation  
Precipitation 0.00 in 0.08 in 2.21 in (1992)
Month to date precipitation 0.84  
Year to date precipitation 28.80  
Snow  
Snow 0.00 in - - ()
Month to date snowfall  
Since 1 July snowfall  
Since 1 September snowfall  
Snow Depth -    
Sea Level Pressure  
Sea Level Pressure 29.96 in    
Wind  
Wind Speed 16 mph (SSE)    
Max Wind Speed 21 mph    
Max Gust Speed 29 mph    
Visibility 10 miles    
Events      
T = Trace of Precipitation, MM = Missing Value Source: NWS Daily Summary

Daily Weather History Graph

Daily Weather History Graph

Search for Another Location

Airport or City:

Trip Planner

Search our weather history database for the weather conditions in past years. The results will help you decide how hot, cold, wet, or windy it might be!

Date:

Astronomy

Nov. 10, 2012 Rise Set
Actual Time 6:46 AM CST 5:38 PM CST
Civil Twilight 6:21 AM CST 6:02 PM CST
Nautical Twilight 5:53 AM CST 6:30 PM CST
Astronomical Twilight 5:25 AM CST 6:58 PM CST
Moon 3:09 AM CST (11/10) 3:11 PM CST (11/10)
Length of Visible Light 11h 41m
Length of Day
10h 51m
Waning Crescent, 14% of the Moon is Illuminated
Nov 10
Waning Crescent
Nov 13
New
Nov 20
First Quarter
Nov 28
Full
Dec 6
Last Quarter

Hourly Weather History & Observations

Time (CST) Temp. Heat Index Dew Point Humidity Pressure Visibility Wind Dir Wind Speed Gust Speed Precip Events Conditions
4:15 AM 73.4 °F - 64.4 °F 73% 29.98 in 10.0 mi SSE 16.1 mph 24.2 mph N/A   Scattered Clouds
4:35 AM 73.4 °F - 62.6 °F 69% 29.97 in 10.0 mi SSE 19.6 mph 25.3 mph N/A   Scattered Clouds
4:55 AM 73.4 °F - 64.4 °F 73% 29.98 in 10.0 mi SSE 13.8 mph 21.9 mph N/A   Clear
5:15 AM 75.2 °F - 62.6 °F 65% 29.98 in 10.0 mi SSE 18.4 mph 25.3 mph N/A   Clear
5:35 AM 75.2 °F - 64.4 °F 69% 29.98 in 10.0 mi SSE 17.3 mph 24.2 mph N/A   Scattered Clouds
6:15 AM 75.2 °F - 64.4 °F 69% 29.98 in 10.0 mi South 13.8 mph 18.4 mph N/A   Overcast
6:35 AM 75.2 °F - 64.4 °F 69% 29.99 in 10.0 mi South 9.2 mph - N/A   Mostly Cloudy
6:55 AM 75.2 °F - 64.4 °F 69% 30.00 in 10.0 mi South 16.1 mph 20.7 mph N/A   Mostly Cloudy
7:15 AM 75.2 °F - 64.4 °F 69% 30.00 in 10.0 mi South 13.8 mph 18.4 mph N/A   Overcast
7:35 AM 75.2 °F - 64.4 °F 69% 30.01 in 10.0 mi South 13.8 mph 18.4 mph N/A   Scattered Clouds
7:55 AM 77.0 °F - 62.6 °F 61% 30.01 in 10.0 mi South 13.8 mph 19.6 mph N/A   Clear
8:15 AM 77.0 °F - 62.6 °F 61% 30.01 in 10.0 mi South 12.7 mph 20.7 mph N/A   Clear
8:35 AM 77.0 °F - 64.4 °F 65% 30.01 in 10.0 mi SSE 16.1 mph 21.9 mph N/A   Clear
8:55 AM 77.0 °F - 64.4 °F 65% 30.02 in 10.0 mi SSE 20.7 mph 24.2 mph N/A   Clear
9:35 AM 78.8 °F - 64.4 °F 61% 30.04 in 10.0 mi South 17.3 mph 23.0 mph N/A   Clear
9:55 AM 78.8 °F - 64.4 °F 61% 30.03 in 10.0 mi South 16.1 mph 21.9 mph N/A   Clear
10:15 AM 77.0 °F - 64.4 °F 65% 30.03 in 10.0 mi SSE 17.3 mph 24.2 mph N/A   Clear
10:35 AM 78.8 °F - 64.4 °F 61% 30.02 in 10.0 mi SSE 18.4 mph 24.2 mph N/A   Clear
10:55 AM 80.6 °F 82.7 °F 66.2 °F 61% 30.02 in 10.0 mi SSE 16.1 mph 23.0 mph N/A   Scattered Clouds
11:15 AM 80.6 °F 82.7 °F 66.2 °F 61% 30.01 in 10.0 mi SSE 17.3 mph 21.9 mph N/A   Scattered Clouds
11:35 AM 78.8 °F - 68.0 °F 69% 30.01 in 10.0 mi SSE 15.0 mph 20.7 mph N/A   Clear
11:55 AM 78.8 °F - 66.2 °F 65% 30.00 in 10.0 mi SSE 15.0 mph 23.0 mph N/A   Scattered Clouds
12:15 PM 78.8 °F - 68.0 °F 69% 29.99 in 10.0 mi SSE 13.8 mph 19.6 mph N/A   Scattered Clouds
12:35 PM 78.8 °F - 66.2 °F 65% 29.98 in 10.0 mi SSE 16.1 mph 26.5 mph N/A   Scattered Clouds
12:55 PM 78.8 °F - 66.2 °F 65% 29.98 in 10.0 mi SSE 16.1 mph 20.7 mph N/A   Scattered Clouds
1:15 PM 78.8 °F - 66.2 °F 65% 29.97 in 10.0 mi SSE 16.1 mph 21.9 mph N/A   Clear
1:35 PM 78.8 °F - 64.4 °F 61% 29.96 in 10.0 mi SSE 16.1 mph 21.9 mph N/A   Scattered Clouds
1:55 PM 78.8 °F - 64.4 °F 61% 29.95 in 10.0 mi SSE 17.3 mph 23.0 mph N/A   Scattered Clouds
2:15 PM 78.8 °F - 66.2 °F 65% 29.94 in 10.0 mi SSE 17.3 mph 23.0 mph N/A   Mostly Cloudy
2:35 PM 78.8 °F - 66.2 °F 65% 29.94 in 10.0 mi SSE 13.8 mph 20.7 mph N/A   Scattered Clouds
2:55 PM 78.8 °F - 68.0 °F 69% 29.93 in 10.0 mi SSE 12.7 mph 19.6 mph N/A   Scattered Clouds
3:15 PM 78.8 °F - 68.0 °F 69% 29.93 in 10.0 mi SSE 13.8 mph 21.9 mph N/A   Scattered Clouds
3:35 PM 78.8 °F - 68.0 °F 69% 29.93 in 10.0 mi SSE 15.0 mph 23.0 mph N/A   Clear
3:55 PM 78.8 °F - 68.0 °F 69% 29.92 in 10.0 mi SSE 15.0 mph 20.7 mph N/A   Clear
4:15 PM 77.0 °F - 66.2 °F 69% 29.92 in 10.0 mi SSE 17.3 mph 25.3 mph N/A   Clear
4:35 PM 77.0 °F - 66.2 °F 69% 29.92 in 10.0 mi SSE 13.8 mph 21.9 mph N/A   Clear
4:55 PM 77.0 °F - 68.0 °F 74% 29.92 in 10.0 mi SSE 12.7 mph 20.7 mph N/A   Clear
5:15 PM 77.0 °F - 68.0 °F 74% 29.93 in 7.0 mi SSE 16.1 mph 19.6 mph N/A   Scattered Clouds
5:35 PM 77.0 °F - 68.0 °F 74% 29.93 in 10.0 mi SSE 16.1 mph 21.9 mph N/A   Scattered Clouds
5:55 PM 77.0 °F - 68.0 °F 74% 29.93 in 10.0 mi SSE 13.8 mph 21.9 mph N/A   Scattered Clouds
6:15 PM 75.2 °F - 68.0 °F 78% 29.93 in 10.0 mi SSE 12.7 mph 20.7 mph N/A   Clear
6:35 PM 75.2 °F - 68.0 °F 78% 29.94 in 10.0 mi SSE 15.0 mph 19.6 mph N/A   Scattered Clouds
6:55 PM 77.0 °F - 68.0 °F 74% 29.94 in 10.0 mi SSE 16.1 mph 20.7 mph N/A   Scattered Clouds
7:15 PM 75.2 °F - 68.0 °F 78% 29.93 in 10.0 mi SSE 15.0 mph 21.9 mph N/A   Clear
7:35 PM 75.2 °F - 68.0 °F 78% 29.94 in 10.0 mi SSE 16.1 mph 21.9 mph N/A   Clear
7:55 PM 77.0 °F - 66.2 °F 69% 29.94 in 10.0 mi SSE 16.1 mph 23.0 mph N/A   Clear
8:15 PM 77.0 °F - 68.0 °F 74% 29.95 in 10.0 mi SSE 15.0 mph 20.7 mph N/A   Clear
8:35 PM 77.0 °F - 66.2 °F 69% 29.95 in 10.0 mi SSE 17.3 mph 21.9 mph N/A   Clear
8:55 PM 77.0 °F - 66.2 °F 69% 29.95 in 10.0 mi SSE 18.4 mph 25.3 mph N/A   Clear
9:15 PM 77.0 °F - 66.2 °F 69% 29.95 in 10.0 mi SSE 17.3 mph 24.2 mph N/A   Clear
9:35 PM 77.0 °F - 66.2 °F 69% 29.95 in 10.0 mi South 19.6 mph 26.5 mph N/A   Clear
9:55 PM 77.0 °F - 68.0 °F 74% 29.95 in 10.0 mi South 15.0 mph 23.0 mph N/A   Clear
10:15 PM 77.0 °F - 66.2 °F 69% 29.94 in 10.0 mi South 18.4 mph 27.6 mph N/A   Clear
10:35 PM 75.2 °F - 66.2 °F 73% 29.94 in 10.0 mi SSE 18.4 mph 25.3 mph N/A   Clear
10:55 PM 75.2 °F - 68.0 °F 78% 29.93 in 10.0 mi SSE 16.1 mph 24.2 mph N/A   Clear
11:15 PM 75.2 °F - 68.0 °F 78% 29.93 in 10.0 mi SSE 17.3 mph 24.2 mph N/A   Clear
11:35 PM 75.2 °F - 68.0 °F 78% 29.93 in 10.0 mi SSE 17.3 mph 24.2 mph N/A   Clear
11:55 PM 77.0 °F - 68.0 °F 74% 29.91 in 10.0 mi SSE 19.6 mph 28.8 mph N/A   Clear